Weather reports worldwide

Advertisment
Aultbea, United Kingdom (3034): temperature & dewpoint: 15.02.2019 21:00:00 - 21.02.2019 21:00:00 (GMT)Aultbea, United Kingdom (3034): temperature -20cm & temperature -100cm: 15.02.2019 21:00:00 - 21.02.2019 21:00:00 (GMT)Aultbea, United Kingdom (3034): wind speed & gusts: 15.02.2019 21:00:00 - 21.02.2019 21:00:00 (GMT)Aultbea, United Kingdom (3034): wind direction: 15.02.2019 21:00:00 - 21.02.2019 21:00:00 (GMT)Aultbea, United Kingdom (3034): reduced air pressure: 15.02.2019 21:00:00 - 21.02.2019 21:00:00 (GMT)Aultbea, United Kingdom (3034): visibility: 15.02.2019 21:00:00 - 21.02.2019 21:00:00 (GMT)Aultbea, United Kingdom (3034): precipitation: 15.02.2019 21:00:00 - 21.02.2019 21:00:00 (GMT)
Date & Time tt [°C] td [°C] tt -20cm [°C] tt -100cm [°C] ff [km/h] ff [kn] fx [km/h] fx [kn] dd ppp [hPa] vv [km] rr [mm]
21.02.2019 21:00:00 - - - - - - - - - - - -
21.02.2019 20:00:00 12,9 6,4 - - 15 8 - - SSE 1017,8 35 0,0
21.02.2019 19:00:00 13,2 7,8 - - 15 8 - - ESE 1017,4 45 0,0
21.02.2019 18:00:00 13,0 8,8 - - 21 11 - - S 1017,6 28 0,0
21.02.2019 17:00:00 13,4 9,5 - - 26 14 48 26 S 1016,4 35 0,0
21.02.2019 16:00:00 13,8 10,0 - - 18 10 - - S 1016,4 40 0,0
21.02.2019 15:00:00 13,6 10,1 - - 35 19 46 25 S 1015,9 40 0,0
21.02.2019 14:00:00 13,0 10,2 - - 28 15 - - S 1015,7 35 0,0
21.02.2019 13:00:00 12,9 10,6 - - 29 16 - - S 1015,5 30 0,2
21.02.2019 12:00:00 12,7 10,8 - - 29 16 54 29 S 1014,9 14 0,0
21.02.2019 11:00:00 12,8 10,5 - - 39 21 55 30 S 1014,1 35 0,0
21.02.2019 10:00:00 12,7 10,3 - - 41 22 54 29 S 1013,3 30 0,0
21.02.2019 09:00:00 12,6 10,5 7,0 6,7 42 23 55 30 S 1012,1 35 0,0
21.02.2019 08:00:00 12,4 10,3 - - 37 20 52 28 S 1011,3 35 0,0
21.02.2019 07:00:00 12,5 10,1 - - 41 22 52 28 S 1010,2 50 0,0
21.02.2019 06:00:00 12,4 10,0 - - 35 19 52 28 S 1010,0 35 0,0
21.02.2019 05:00:00 12,1 9,5 - - 16 9 - - S 1008,6 40 0,0
21.02.2019 04:00:00 11,7 9,3 - - 24 13 - - S 1008,7 50 0,0
21.02.2019 03:00:00 12,0 8,5 - - 21 11 - - S 1008,8 45 0,0
21.02.2019 02:00:00 11,1 7,3 - - 21 11 - - S 1008,4 50 0,0
21.02.2019 01:00:00 10,1 6,6 - - 29 16 - - S 1008,3 45 0,0
21.02.2019 00:00:00 9,2 6,9 - - 21 11 - - S 1008,3 45 0,0
20.02.2019 23:00:00 9,1 6,7 - - 21 11 - - S 1008,1 40 0,0
20.02.2019 22:00:00 9,4 7,3 - - 24 13 - - S 1007,8 50 0,0
20.02.2019 21:00:00 9,2 7,0 - - 26 14 - - SSW 1007,2 40 0,0
20.02.2019 20:00:00 9,3 6,5 - - 24 13 - - SSW 1006,9 45 0,0
20.02.2019 19:00:00 9,1 7,1 - - 26 14 - - SSW 1006,4 26 0,0
20.02.2019 18:00:00 9,2 7,6 - - 28 15 - - SSW 1005,4 23 0,0
20.02.2019 17:00:00 9,3 7,7 - - 22 12 - - SSW 1004,7 30 0,8
20.02.2019 16:00:00 9,4 8,8 - - 22 12 55 30 SW 1004,1 2,0 0,2
20.02.2019 15:00:00 10,2 9,4 - - 39 21 59 32 SSW 1002,7 3,1 -
20.02.2019 14:00:00 10,4 9,6 - - 41 22 61 33 S 1001,9 3,4 -
20.02.2019 13:00:00 10,9 9,6 - - 41 22 63 34 S 1001,2 7 0,0
20.02.2019 12:00:00 10,9 9,3 - - 44 24 65 35 S 1000,8 8 0,0
20.02.2019 11:00:00 11,0 8,9 - - 48 26 72 39 S 1000,4 10 0,0
20.02.2019 10:00:00 10,9 8,9 - - 42 23 63 34 S 1000,2 26 0,0
20.02.2019 09:00:00 10,9 8,9 6,7 6,5 42 23 59 32 S 1000,0 30 0,4
20.02.2019 08:00:00 10,3 9,2 - - 35 19 57 31 S 999,7 10 0,6
20.02.2019 07:00:00 10,6 9,0 - - 39 21 55 30 S 999,6 27 0,0
20.02.2019 06:00:00 10,4 9,1 - - 37 20 57 31 S 999,4 35 0,4
20.02.2019 05:00:00 10,3 9,2 - - 39 21 52 28 S 999,1 11 2,8
20.02.2019 04:00:00 9,9 8,9 - - 37 20 54 29 S 999,1 5 2,0
20.02.2019 03:00:00 10,0 8,6 - - 39 21 54 29 S 999,3 7 1,0
20.02.2019 02:00:00 9,7 8,5 - - 22 12 - - S 999,4 11 0,8
20.02.2019 01:00:00 8,2 6,8 - - 15 8 - - SSE 999,7 14 1,4
20.02.2019 00:00:00 6,9 5,7 - - 9 5 - - SE 1000,1 15 1,0
19.02.2019 23:00:00 6,7 5,2 - - 11 6 - - SE 1001,0 17 0,8
19.02.2019 22:00:00 6,6 4,9 - - 18 10 - - SSE 1002,1 15 0,8
19.02.2019 21:00:00 6,5 4,4 - - 16 9 - - SE 1003,2 18 1,0
19.02.2019 20:00:00 6,4 4,4 - - 13 7 - - SE 1004,2 35 0,4
19.02.2019 19:00:00 6,5 4,9 - - 9 5 - - ESE 1005,0 21 0,2
19.02.2019 18:00:00 6,6 5,0 - - 5 3 - - ESE 1005,7 26 0,2
19.02.2019 17:00:00 7,7 4,1 - - 21 11 - - S 1006,2 35 0,0
19.02.2019 16:00:00 7,9 4,8 - - 13 7 - - S 1006,7 35 0,0
19.02.2019 15:00:00 8,4 5,1 - - 15 8 - - S 1007,4 35 0,0
19.02.2019 14:00:00 8,8 5,6 - - 13 7 - - S 1007,6 50 0,0
19.02.2019 13:00:00 7,6 5,7 - - 9 5 - - SE 1007,9 40 0,0
19.02.2019 12:00:00 7,7 5,2 - - 9 5 - - S 1008,3 18 0,0
19.02.2019 11:00:00 7,7 5,0 - - 5 3 - - SE 1008,2 35 0,0
19.02.2019 10:00:00 7,2 5,4 - - 8 4 - - S 1008,1 18 0,0
19.02.2019 09:00:00 6,9 5,6 6,4 6,4 5 3 - - SW 1007,9 17 0,0
19.02.2019 08:00:00 6,7 5,0 - - 8 4 - - WSW 1007,5 13 0,0
19.02.2019 07:00:00 6,2 4,5 - - 9 5 - - W 1007,0 18 0,0
19.02.2019 06:00:00 6,9 4,8 - - 11 6 - - W 1006,6 20 0,0
19.02.2019 05:00:00 7,2 5,1 - - 15 8 - - WSW 1006,3 22 0,0
19.02.2019 04:00:00 6,8 5,1 - - 13 7 - - WSW 1006,1 26 0,0
19.02.2019 03:00:00 6,1 4,4 - - 11 6 - - WSW 1005,8 23 0,0
19.02.2019 02:00:00 6,1 4,4 - - 11 6 - - WSW 1005,6 25 0,0
19.02.2019 01:00:00 6,6 4,3 - - 16 9 - - W 1005,0 27 0,2
19.02.2019 00:00:00 6,2 4,2 - - 9 5 - - SW 1004,6 20 0,0
18.02.2019 23:00:00 7,1 4,9 - - 18 10 - - W 1003,7 20 0,0
18.02.2019 22:00:00 7,2 5,2 - - 18 10 - - WNW 1002,9 20 0,0
18.02.2019 21:00:00 7,2 5,9 - - 18 10 46 25 W 1001,7 25 0,2
18.02.2019 20:00:00 7,7 5,8 - - 21 11 - - W 1000,4 27 0,0
18.02.2019 19:00:00 7,5 6,4 - - 15 8 - - W 999,1 21 0,0
18.02.2019 18:00:00 7,6 5,2 - - 22 12 - - WSW 998,4 26 0,0
18.02.2019 17:00:00 7,2 4,9 - - 22 12 - - WSW 997,3 35 0,8
18.02.2019 16:00:00 7,9 4,9 - - 24 13 - - WSW 996,5 35 0,0
18.02.2019 15:00:00 7,8 5,5 - - 21 11 - - SW 995,9 30 0,0
18.02.2019 14:00:00 8,2 6,0 - - 22 12 - - SW 995,4 30 0,0
18.02.2019 13:00:00 7,5 5,7 - - 22 12 46 25 SW 995,1 21 0,4
18.02.2019 12:00:00 7,5 6,4 - - 31 17 65 35 SSW 994,7 4,9 1,0
18.02.2019 11:00:00 6,6 5,6 - - 44 24 76 41 S 994,6 3,5 4,0
18.02.2019 10:00:00 7,1 5,3 - - 55 30 83 45 S 994,1 5 0,6
18.02.2019 09:00:00 7,2 5,2 6,7 6,4 57 31 81 44 S 993,8 17 2,4
18.02.2019 08:00:00 7,0 4,6 - - 59 32 81 44 S 993,7 12 0,2
18.02.2019 07:00:00 7,1 4,4 - - 65 35 83 45 S 993,1 11 0,0
18.02.2019 06:00:00 6,8 4,4 - - 59 32 81 44 S 993,2 11 0,2
18.02.2019 05:00:00 7,0 4,8 - - 48 26 70 38 S 993,8 9 0,4
18.02.2019 04:00:00 7,2 5,0 - - 41 22 81 44 S 994,4 14 1,2
18.02.2019 03:00:00 7,2 4,1 - - 50 27 80 43 SSW 995,1 10 0,8
18.02.2019 02:00:00 8,1 5,0 - - 54 29 80 43 S 994,4 9 0,0
18.02.2019 01:00:00 8,0 5,3 - - 50 27 83 45 S 994,7 5 0,4
18.02.2019 00:00:00 9,4 3,4 - - 48 26 74 40 S 994,7 26 0,0
17.02.2019 23:00:00 9,4 3,7 - - 46 25 72 39 S 995,6 30 0,0
17.02.2019 22:00:00 9,2 4,3 - - 41 22 63 34 S 995,7 26 0,0
17.02.2019 21:00:00 9,8 3,1 - - 46 25 76 41 S 995,9 40 0,0
17.02.2019 20:00:00 9,5 3,4 - - 48 26 68 37 S 996,5 26 0,0
17.02.2019 19:00:00 8,4 4,5 - - 48 26 70 38 SSW 997,3 5 0,0
17.02.2019 18:00:00 8,4 4,6 - - 42 23 59 32 S 997,2 23 0,2
17.02.2019 17:00:00 8,5 4,8 - - 37 20 54 29 S 997,2 29 0,0
17.02.2019 16:00:00 8,5 5,1 - - 41 22 55 30 S 997,4 21 0,0
17.02.2019 15:00:00 7,7 5,3 - - 42 23 57 31 S 997,3 35 0,6
17.02.2019 14:00:00 7,4 5,8 - - 42 23 74 40 SW 997,2 5 0,2
17.02.2019 13:00:00 10,0 7,4 - - 46 25 65 35 S 996,2 35 0,2
17.02.2019 12:00:00 10,4 8,0 - - 24 13 - - S 996,2 26 -
17.02.2019 11:00:00 10,8 7,6 - - 21 11 - - S 996,5 24 -
17.02.2019 10:00:00 10,1 7,6 - - 11 6 - - SSE 997,4 45 0,2
17.02.2019 09:00:00 9,5 8,0 6,7 6,2 13 7 - - S 997,9 26 0,4
17.02.2019 08:00:00 9,0 8,1 - - 9 5 - - SSE 998,5 10 0,8
17.02.2019 07:00:00 9,3 8,1 - - 11 6 - - SSE 998,9 6 0,6
17.02.2019 06:00:00 10,3 8,0 - - 21 11 - - S 999,0 19 0,4
17.02.2019 05:00:00 10,7 7,8 - - 34 18 65 35 SSW 999,6 13 0,0
17.02.2019 04:00:00 11,6 6,1 - - 50 27 68 37 S 1000,3 35 0,0
17.02.2019 03:00:00 10,7 7,0 - - 44 24 68 37 S 1001,1 30 0,0
17.02.2019 02:00:00 11,1 5,3 - - 21 11 - - S 1001,7 35 0,0
17.02.2019 01:00:00 10,5 4,3 - - 13 7 - - SE 1002,5 30 0,0
17.02.2019 00:00:00 9,6 4,8 - - 11 6 - - SSE 1003,5 28 0,0
16.02.2019 23:00:00 10,6 4,4 - - 21 11 - - S 1004,5 40 0,0
16.02.2019 22:00:00 10,2 4,7 - - 16 9 - - S 1005,4 45 0,0
16.02.2019 21:00:00 9,9 4,7 - - 18 10 - - S 1005,9 50 0,0
16.02.2019 20:00:00 9,7 4,5 - - 15 8 - - S 1006,5 50 0,0
16.02.2019 19:00:00 9,7 4,6 - - 24 13 - - S 1006,9 40 0,0
16.02.2019 18:00:00 9,6 4,0 - - 26 14 - - S 1007,4 35 0,0
16.02.2019 17:00:00 9,4 4,4 - - 28 15 - - S 1007,7 50 0,0
16.02.2019 16:00:00 9,4 5,3 - - 29 16 - - SSW 1008,0 50 0,0
16.02.2019 15:00:00 9,8 5,5 - - 34 18 - - SSW 1008,7 28 0,0
16.02.2019 14:00:00 9,9 6,6 - - 31 17 46 25 S 1009,6 21 0,2
16.02.2019 13:00:00 8,9 7,1 - - 29 16 57 31 SSW 1010,0 14 0,2
16.02.2019 12:00:00 8,6 7,7 - - 35 19 52 28 SSW 1010,2 2,8 0,2
16.02.2019 11:00:00 8,9 8,0 - - 34 18 48 26 S 1009,4 3,0 0,8
16.02.2019 10:00:00 8,9 8,2 - - 31 17 - - S 1008,9 2,9 0,4
16.02.2019 09:00:00 9,3 8,0 6,7 6,0 31 17 - - S 1008,1 45 0,0
16.02.2019 08:00:00 9,1 8,0 - - 24 13 - - S 1007,7 12 0,0
16.02.2019 07:00:00 8,7 8,2 - - 16 9 - - S 1007,5 9 0,0
16.02.2019 06:00:00 8,6 8,0 - - 21 11 - - S 1007,6 5 0,2
16.02.2019 05:00:00 9,0 7,7 - - 24 13 - - S 1007,2 25 0,0
16.02.2019 04:00:00 9,0 7,7 - - 21 11 - - SSW 1007,3 25 0,0
16.02.2019 03:00:00 9,1 7,4 - - 22 12 - - S 1007,5 16 0,0
16.02.2019 02:00:00 8,9 6,9 - - 13 7 - - S 1007,5 20 0,0
16.02.2019 01:00:00 8,1 6,1 - - 15 8 - - SSE 1006,9 35 0,0
16.02.2019 00:00:00 8,5 6,8 - - 13 7 - - S 1007,1 35 0,2
15.02.2019 23:00:00 8,9 7,8 - - 31 17 52 28 S 1007,2 10 3,6
15.02.2019 22:00:00 9,5 8,7 - - 39 21 50 27 SSW 1007,5 2,9 5,8
15.02.2019 21:00:00 10,0 8,7 - - 35 19 57 31 S 1006,3 6 2,0

tt = temperature
td = dewpoint
tt -20cm = temperature -20cm
tt -100cm = temperature -100cm
ff = wind speed
fx = gusts
dd = wind direction
ppp = reduced air pressure
vv = visibility
rr = precipitation

Next stations